Orbital Elements at Epoch 2459000.5 (2020-May-31.0) TDB
Reference: JPL 24 (heliocentric ecliptic J2000)
Element | Value | Uncertainty (1-sigma) | Units |
e | .1905167059065427 | 4.0364e-08 | |
a | 3.041609943157678 | 1.5697e-08 | au |
q | 2.462132436134691 | 1.2515e-07 | au |
i | 1.845985523185356 | 4.9502e-06 | deg |
node | 20.37568601405686 | 0.00013815 | deg |
peri | 79.86684618900274 | 0.00013904 | deg |
M | 11.57537003849374 | 1.3144e-05 | deg |
tp | 2458938.200280926934 (2020-Mar-29.70028093) | 7.0681e-05 | TDB |
period | 1937.553511613017 5.30 | 1.4999e-05 4.107e-08 | d yr |
n | .1858013199853764 | 1.4383e-09 | deg/d |
Q | 3.621087450180666 | 1.8688e-08 | au |
|
| | Orbit Determination Parameters
Additional Information
|